Вернуться в каталог

CZ-6A DEB

АктивенSSO
NORAD 54992·DEBRIS·🇨🇳 China

Запущен Nov 11, 2022 с Taiyuan Satellite Launch Center

Loading…

Ближайшие Пролёты (ближайшие 24 часа)

TLE

СвежийSource: Space-Track

Эпоха: Sep 13, 2026, 22:45 UTC

1 54992U 22151UH  26256.94818562  .00002055  00000-0  87332-3 0  9992
2 54992  98.7834 273.0860 0024519 354.0650   6.0236 14.26227292197630

Отслеживайте CZ-6A DEB в реальном времени с AllMySat

Download on the App Store